"2016-04-07 00:00:00",1524891,9.54,298.7,2.935,0.723,18.5,106.6211,16.22,17.25,13.21,0,110.8,13.11,17.03,260.7
"2016-04-07 00:00:30",1524892,9.92,298.7,6.598,0.461,18.41,106.6129,16.2,17.22,12.68,0,110.8,13.11,17.01,260.7
"2016-04-07 00:01:00",1524893,9.17,289.1,5.254,0.64,18.44,106.6047,16.18,17.21,12.75,0,110.8,13.12,16.99,251.1
"2016-04-07 00:01:30",1524894,11.46,300.6,2.87,0.676,18.48,106.5923,16.15,17.2,12.35,0,110.8,13.12,16.96,262.6
"2016-04-07 00:02:00",1524895,12.27,304.8,2.83,0.418,18.49,106.5878,16.14,17.2,12.16,0,110.8,13.12,16.95,266.8
"2016-04-07 00:02:30",1524896,10.76,305.3,2.732,0.552,18.51,106.5878,16.14,17.18,12.18,0,110.8,13.12,16.95,267.3
"2016-04-07 00:03:00",1524897,10.36,300.8,1.927,0.467,18.46,106.5859,16.13,17.17,12.28,0,110.8,13.12,16.94,262.8
"2016-04-07 00:03:30",1524898,9.9,296.4,1.931,0.214,18.48,106.5797,16.12,17.17,12.4,0,110.8,13.12,16.93,258.4
"2016-04-07 00:04:00",1524899,9.41,295.3,1.671,0.279,18.44,106.5656,16.08,17.14,12.61,0,110.8,13.12,16.89,257.3
"2016-04-07 00:04:30",1524900,8.4,289.6,2.562,0.434,18.46,106.5541,16.05,17.12,12.74,0,110.8,13.12,16.86,251.6
"2016-04-07 00:05:00",1524901,7.954,289.1,2.376,0.182,18.48,106.5541,16.05,17.11,12.78,0,110.8,13.12,16.86,251.1
"2016-04-07 00:05:30",1524902,8.17,286.3,3.1,0.698,18.5,106.5541,16.05,17.11,12.77,0,110.7,13.12,16.86,248.3
"2016-04-07 00:06:00",1524903,9.44,285.6,4.546,0.443,18.55,106.5541,16.05,17.09,12.92,0,110.8,13.12,16.86,247.6
"2016-04-07 00:06:30",1524904,8.31,284.6,4.107,0.592,18.52,106.5524,16.05,17.08,13.03,0,110.7,13.12,16.86,246.6
"2016-04-07 00:07:00",1524905,9.47,299.1,6.591,0.525,18.43,106.5431,16.02,17.07,12.73,0,110.7,13.12,16.83,261.1
"2016-04-07 00:07:30",1524906,9.97,295.8,2.625,0.891,18.42,106.5343,16,17.05,12.67,0,110.7,13.12,16.81,257.8
"2016-04-07 00:08:00",1524907,11.59,298.9,2.647,0.416,18.43,106.527,15.98,17.05,12.47,0,110.7,13.12,16.79,260.9
"2016-04-07 00:08:30",1524908,10.54,302.8,1.484,0.247,18.47,106.5203,15.97,17.02,12.31,0,110.7,13.12,16.77,264.8
"2016-04-07 00:09:00",1524909,11.13,302.5,1.962,0.405,18.51,106.5203,15.97,17.03,12.3,0,110.7,13.12,16.77,264.5
"2016-04-07 00:09:30",1524910,10.18,302.5,2.516,0.501,18.45,106.5206,15.97,17.01,12.51,0,110.7,13.12,16.77,264.5
"2016-04-07 00:10:00",1524911,10.57,294.9,1.961,0.456,18.51,106.52,15.97,17,12.51,0,110.7,13.12,16.77,256.9
"2016-04-07 00:10:30",1524912,12.14,297.1,4.197,0.897,18.44,106.5179,15.96,17,12.58,0,110.7,13.12,16.77,259.1
"2016-04-07 00:11:00",1524913,13.27,302.7,4.611,0.686,18.53,106.514,15.95,16.98,12.3,0,110.7,13.12,16.76,264.7
"2016-04-07 00:11:30",1524914,12.03,299.4,2.185,0.391,18.5,106.4982,15.91,16.98,12.19,0,110.7,13.13,16.72,261.4
"2016-04-07 00:12:00",1524915,12.36,298.8,3.394,0.588,18.5,106.4927,15.9,16.96,12.18,0,110.7,13.12,16.70,260.8
"2016-04-07 00:12:30",1524916,12.92,308.5,2.693,0.512,18.77,106.4946,15.9,16.95,11.87,0,110.7,13.12,16.71,270.5
"2016-04-07 00:13:00",1524917,14.09,311,2.647,0.594,18.75,106.4949,15.9,16.95,11.79,0,110.7,13.12,16.71,273.0
"2016-04-07 00:13:30",1524918,12.62,304.9,2.885,0.657,18.59,106.4949,15.9,16.94,11.8,0,110.7,13.12,16.71,266.9
"2016-04-07 00:14:00",1524919,11.65,305,1.887,0.578,18.56,106.4964,15.9,16.94,11.91,0,110.7,13.12,16.71,267.0
"2016-04-07 00:14:30",1524920,10.47,304.1,1.584,0.546,18.51,106.4985,15.91,16.94,11.96,0,110.7,13.12,16.72,266.1
"2016-04-07 00:15:00",1524921,9.44,305.8,2.177,0.34,18.52,106.5018,15.92,16.93,11.99,0,110.7,13.12,16.73,267.8
"2016-04-07 00:15:30",1524922,9.36,304,2.201,0.18,18.41,106.5048,15.93,16.93,12.1,0,110.7,13.12,16.73,266.0
"2016-04-07 00:16:00",1524923,8.81,302,3.514,0.383,18.44,106.5099,15.94,16.92,12.23,0,110.7,13.12,16.75,264.0
"2016-04-07 00:16:30",1524924,9.25,301.6,4.611,0.509,18.51,106.5117,15.94,16.93,12.33,0,110.7,13.12,16.75,263.6
"2016-04-07 00:17:00",1524925,9.35,300.5,4.826,0.526,18.42,106.5162,15.96,16.93,12.43,0,110.7,13.12,16.76,262.5
"2016-04-07 00:17:30",1524926,9.38,300.3,2.71,0.293,18.38,106.5183,15.96,16.92,12.45,0,110.7,13.12,16.77,262.3
"2016-04-07 00:18:00",1524927,9.27,299.6,3.658,0.353,18.4,106.5166,15.96,16.92,12.42,0,110.7,13.13,16.76,261.6
"2016-04-07 00:18:30",1524928,9.39,299.6,3.466,0.376,18.47,106.5133,15.95,16.91,12.43,0,110.7,13.13,16.76,261.6
"2016-04-07 00:19:00",1524929,8.86,295.8,1.7,0.56,18.47,106.5039,15.92,16.9,12.43,0,110.7,13.13,16.73,257.8
"2016-04-07 00:19:30",1524930,7.973,297.4,2.496,0.331,18.5,106.4901,15.89,16.88,12.47,0,110.7,13.13,16.70,259.4
"2016-04-07 00:20:00",1524931,9.2,291.1,2.812,0.702,18.51,106.4887,15.88,16.88,12.4,0,110.7,13.13,16.69,253.1
"2016-04-07 00:20:30",1524932,10.31,302.1,2.19,0.534,18.48,106.4887,15.88,16.89,12.57,0,110.7,13.13,16.69,264.1
"2016-04-07 00:21:00",1524933,9.48,301,3.056,0.411,18.52,106.4887,15.88,16.88,12.51,0,110.7,13.13,16.69,263.0
"2016-04-07 00:21:30",1524934,8.57,294,4.628,0.431,18.56,106.4887,15.88,16.86,12.39,0,110.7,13.13,16.69,256.0
"2016-04-07 00:22:00",1524935,9.37,288.5,4.418,0.346,18.51,106.4856,15.88,16.86,12.62,0,110.7,13.13,16.68,250.5
"2016-04-07 00:22:30",1524936,8.65,291.2,3.013,0.862,18.54,106.4808,15.86,16.85,12.59,0,110.7,13.13,16.67,253.2
"2016-04-07 00:23:00",1524937,7.688,291.9,4.278,0.642,18.56,106.4726,15.84,16.84,12.67,0,110.7,13.13,16.65,253.9
"2016-04-07 00:23:30",1524938,9.03,285.6,3.943,0.428,18.5,106.4568,15.8,16.83,12.97,0,110.7,13.13,16.61,247.6
"2016-04-07 00:24:00",1524939,7.542,279.9,2.931,0.497,18.54,106.4549,15.8,16.83,13.21,0,110.7,13.13,16.61,241.9
"2016-04-07 00:24:30",1524940,7.476,280,2.223,0.335,18.5,106.4549,15.8,16.83,13.27,0,110.7,13.13,16.61,242.0
"2016-04-07 00:25:00",1524941,7.333,288.5,4.651,0.552,18.52,106.4549,15.8,16.84,13.03,0,110.7,13.13,16.61,250.5
"2016-04-07 00:25:30",1524942,7.349,295.2,4.632,0.275,18.42,106.4549,15.8,16.81,13.08,0,110.7,13.13,16.61,257.2
"2016-04-07 00:26:00",1524943,8.91,296.2,6.004,0.945,18.55,106.4538,15.8,16.81,12.68,0,110.7,13.13,16.60,258.2
"2016-04-07 00:26:30",1524944,7.339,298.7,2.201,0.707,18.45,106.4464,15.78,16.78,12.75,0,110.7,13.13,16.58,260.7
"2016-04-07 00:27:00",1524945,8.56,300.6,2.623,0.843,18.49,106.4405,15.76,16.77,12.72,0,110.7,13.13,16.57,262.6
"2016-04-07 00:27:30",1524946,8.41,300.9,9.34,0.717,18.53,106.4284,15.73,16.78,12.74,0,110.7,13.13,16.54,262.9
"2016-04-07 00:28:00",1524947,8.92,302.5,4.806,0.439,18.56,106.4214,15.71,16.76,12.54,0,110.7,13.13,16.52,264.5
"2016-04-07 00:28:30",1524948,8.94,300.4,3.693,0.472,18.65,106.4211,15.71,16.76,12.38,0,110.6,13.13,16.52,262.4
"2016-04-07 00:29:00",1524949,8.14,302.1,3.418,0.545,18.54,106.4211,15.71,16.77,12.51,0,110.6,13.13,16.52,264.1
"2016-04-07 00:29:30",1524950,7.992,305,4.96,0.466,18.57,106.4211,15.71,16.76,12.6,0,110.7,13.13,16.52,267.0
"2016-04-07 00:30:00",1524951,6.897,297.1,5.456,0.558,18.5,106.4211,15.71,16.74,12.65,0,110.6,13.13,16.52,259.1
"2016-04-07 00:30:30",1524952,6.109,280.7,6.923,0.564,18.53,106.4211,15.71,16.74,12.73,0,110.6,13.13,16.52,242.7
"2016-04-07 00:31:00",1524953,6.919,281.1,4.014,1.231,18.41,106.4214,15.71,16.72,13.21,0,110.6,13.13,16.52,243.1
"2016-04-07 00:31:30",1524954,9,284.5,4.019,0.526,18.59,106.4214,15.71,16.7,12.91,0,110.6,13.13,16.52,246.5
"2016-04-07 00:32:00",1524955,8.5,284,5.252,0.911,18.54,106.4224,15.71,16.73,12.85,0,110.6,13.13,16.52,246.0
"2016-04-07 00:32:30",1524956,6.786,282.5,6.736,1.181,18.42,106.4173,15.7,16.7,13.04,0,110.6,13.13,16.51,244.5
"2016-04-07 00:33:00",1524957,9.08,276.5,6.824,0.347,18.53,106.4141,15.69,16.69,13.09,0,110.6,13.13,16.50,238.5
"2016-04-07 00:33:30",1524958,7.788,275.1,7.342,0.628,18.51,106.4029,15.67,16.69,12.92,0,110.6,13.13,16.47,237.1
"2016-04-07 00:34:00",1524959,8.43,282.5,5.999,0.813,18.4,106.3963,15.65,16.69,13.2,0,110.6,13.14,16.45,244.5
"2016-04-07 00:34:30",1524960,7.67,291.6,7.418,0.734,18.34,106.3966,15.65,16.68,13.25,0,110.6,13.14,16.46,253.6
"2016-04-07 00:35:00",1524961,7.266,253.7,11.67,1.043,18.43,106.3951,15.65,16.66,13.25,0,110.6,13.14,16.45,215.7
"2016-04-07 00:35:30",1524962,7.82,255.6,2.653,0.327,18.45,106.3896,15.63,16.66,13.32,0,110.6,13.14,16.44,217.6
"2016-04-07 00:36:00",1524963,7.367,255.2,5.279,0.241,18.39,106.3836,15.62,16.64,13.46,0,110.6,13.14,16.42,217.2
"2016-04-07 00:36:30",1524964,7.504,265.7,8.35,0.751,18.51,106.3787,15.6,16.63,13.52,0,110.6,13.14,16.41,227.7
"2016-04-07 00:37:00",1524965,7.771,290.3,7.098,0.851,18.3,106.3728,15.59,16.62,13.45,0,110.6,13.14,16.39,252.3
"2016-04-07 00:37:30",1524966,6.233,281.1,6.737,0.327,18.36,106.3688,15.58,16.6,13.49,0,110.6,13.14,16.38,243.1
"2016-04-07 00:38:00",1524967,6.39,262.8,11.61,0.388,18.46,106.3724,15.59,16.6,13.44,0,110.6,13.14,16.39,224.8
"2016-04-07 00:38:30",1524968,7.775,247.9,4.358,0.33,18.44,106.3719,15.59,16.6,13.36,0,110.6,13.14,16.39,209.9
"2016-04-07 00:39:00",1524969,8.32,260,2.448,0.435,18.49,106.3693,15.58,16.58,13.39,0,110.6,13.14,16.39,222.0
"2016-04-07 00:39:30",1524970,8.43,269.8,7.89,0.451,18.44,106.3635,15.56,16.58,13.41,0,110.6,13.14,16.37,231.8
"2016-04-07 00:40:00",1524971,7.061,268,5.07,0.859,18.39,106.3466,15.52,16.56,13.5,0,110.6,13.14,16.33,230.0
"2016-04-07 00:40:30",1524972,6.658,274.7,6.118,0.539,18.31,106.3496,15.53,16.56,13.71,0,110.6,13.15,16.33,236.7
"2016-04-07 00:41:00",1524973,6.424,286.6,6.608,0.593,18.26,106.3538,15.54,16.53,13.69,0,110.6,13.15,16.35,248.6
"2016-04-07 00:41:30",1524974,6.355,279.5,6.82,0.571,18.31,106.3509,15.53,16.53,13.64,0,110.6,13.15,16.34,241.5
"2016-04-07 00:42:00",1524975,6.516,270.7,9.68,0.492,18.32,106.3452,15.52,16.52,13.6,0,110.6,13.15,16.32,232.7
"2016-04-07 00:42:30",1524976,8.25,279.4,8.7,0.824,18.2,106.3353,15.49,16.5,13.52,0,110.6,13.15,16.30,241.4
"2016-04-07 00:43:00",1524977,9.46,291.4,6.053,0.994,18.11,106.3212,15.46,16.5,13.65,0,110.6,13.15,16.26,253.4
"2016-04-07 00:43:30",1524978,10.42,287.7,2.968,0.663,18.1,106.3218,15.46,16.48,13.78,0,110.6,13.15,16.26,249.7
"2016-04-07 00:44:00",1524979,8.99,291,5.308,0.858,18.2,106.3218,15.46,16.47,13.76,0,110.6,13.15,16.26,253.0
"2016-04-07 00:44:30",1524980,9.6,289.6,5.589,0.579,18.2,106.3165,15.44,16.45,13.56,0,110.6,13.15,16.25,251.6
"2016-04-07 00:45:00",1524981,8.89,296,4.009,0.821,18.16,106.3052,15.41,16.44,13.54,0,110.6,13.15,16.22,258.0
"2016-04-07 00:45:30",1524982,8.14,291.5,5.138,0.932,18.16,106.2886,15.37,16.43,13.62,0,110.6,13.15,16.18,253.5
"2016-04-07 00:46:00",1524983,9.59,297,3.636,0.776,18.19,106.288,15.37,16.42,13.54,0,110.6,13.14,16.18,259.0
"2016-04-07 00:46:30",1524984,11.69,295.5,6.605,1.184,18.2,106.288,15.37,16.4,13.6,0,110.6,13.14,16.18,257.5
"2016-04-07 00:47:00",1524985,10.6,294.6,5.016,0.999,18.1,106.2841,15.36,16.39,13.65,0,110.6,13.14,16.17,256.6
"2016-04-07 00:47:30",1524986,13.43,303.6,5.798,1.829,18.43,106.2765,15.34,16.36,13.45,0,110.6,13.14,16.15,265.6
"2016-04-07 00:48:00",1524987,17.71,324.7,4.913,0.778,19.12,106.2691,15.32,16.35,12.12,0,110.6,13.14,16.13,286.7
"2016-04-07 00:48:30",1524988,16.23,315.8,6.722,1.61,18.93,106.2742,15.34,16.35,11.78,0,110.6,13.14,16.14,277.8
"2016-04-07 00:49:00",1524989,11.49,305.7,3.674,0.969,18.41,106.2807,15.35,16.35,12.25,0,110.6,13.14,16.16,267.7
"2016-04-07 00:49:30",1524990,11.25,308,4.734,1.004,18.34,106.2869,15.37,16.34,12.95,0,110.6,13.14,16.17,270.0
"2016-04-07 00:50:00",1524991,9.83,320.5,5.869,1.022,18.55,106.288,15.37,16.35,12.85,0,110.6,13.14,16.18,282.5
"2016-04-07 00:50:30",1524992,8.85,301.7,6.419,0.893,18.3,106.288,15.37,16.36,12.91,0,110.6,13.14,16.18,263.7
"2016-04-07 00:51:00",1524993,8.76,286.9,4.284,0.628,18.09,106.288,15.37,16.36,13.53,0,110.6,13.14,16.18,248.9
"2016-04-07 00:51:30",1524994,9.43,298.3,5.908,0.561,18.13,106.288,15.37,16.34,13.52,0,110.6,13.15,16.18,260.3
"2016-04-07 00:52:00",1524995,9.28,300,11.09,0.85,18.12,106.288,15.37,16.35,13.6,0,110.6,13.15,16.18,262.0
"2016-04-07 00:52:30",1524996,9.84,292.5,5.005,1.057,18.06,106.2877,15.37,16.35,13.85,0,110.6,13.15,16.18,254.5
"2016-04-07 00:53:00",1524997,9.65,300.1,4.747,1.412,17.98,106.2849,15.36,16.35,14.02,0,110.6,13.15,16.17,262.1
"2016-04-07 00:53:30",1524998,10.34,312.5,5.193,1.909,18.05,106.2762,15.34,16.34,14.13,0,110.6,13.15,16.15,274.5
"2016-04-07 00:54:00",1524999,15.12,318.8,1.956,0.875,18.83,106.2596,15.3,16.32,12.95,0,110.6,13.15,16.10,280.8
"2016-04-07 00:54:30",1525000,14.11,316.3,5.116,1.007,18.63,106.2545,15.28,16.32,12.6,0,110.6,13.15,16.09,278.3
"2016-04-07 00:55:00",1525001,13.74,316.9,10.19,1.475,18.14,106.2542,15.28,16.31,13.02,0,110.6,13.15,16.09,278.9
"2016-04-07 00:55:30",1525002,13.25,301.2,7.599,1.11,17.95,106.2542,15.28,16.32,13.65,0,110.6,13.15,16.09,263.2
"2016-04-07 00:56:00",1525003,16.21,310.7,3.994,0.929,18.33,106.2551,15.29,16.31,13.27,0,110.6,13.15,16.09,272.7
"2016-04-07 00:56:30",1525004,15.24,312,3.801,1.3,18.5,106.2548,15.29,16.31,12.33,0,110.6,13.15,16.09,274.0
"2016-04-07 00:57:00",1525005,13.33,310.9,3.823,0.927,18.39,106.2551,15.29,16.31,12.3,0,110.6,13.15,16.09,272.9
"2016-04-07 00:57:30",1525006,12.82,305.4,3.415,1.764,18.29,106.2596,15.3,16.31,12.31,0,110.6,13.15,16.10,267.4
"2016-04-07 00:58:00",1525007,17.36,312.1,3.01,1.084,18.21,106.2734,15.33,16.32,12.49,0,110.6,13.15,16.14,274.1
"2016-04-07 00:58:30",1525008,17,312.8,1.468,0.728,18.23,106.2808,15.35,16.33,12.4,0,110.6,13.15,16.16,274.8
"2016-04-07 00:59:00",1525009,19.26,315.9,2.91,0.937,18.35,106.2843,15.36,16.34,12.12,0,110.6,13.15,16.17,277.9
"2016-04-07 00:59:30",1525010,19.14,318.2,5.251,1.905,18.34,106.2903,15.38,16.34,12.09,0,110.6,13.15,16.18,280.2
"2016-04-07 01:00:00",1525011,20.75,318.7,2.209,0.615,18.3,106.2917,15.38,16.33,12.12,0,110.6,13.15,16.19,280.7
"2016-04-07 01:00:30",1525012,20.32,320.3,2.372,0.822,18.34,106.2949,15.39,16.36,12.19,0,110.6,13.15,16.19,282.3
"2016-04-07 01:01:00",1525013,19.82,320.5,2.257,0.632,18.25,106.2941,15.39,16.36,12.25,0,110.6,13.15,16.19,282.5
"2016-04-07 01:01:30",1525014,20.73,320.7,2.719,1.023,18.14,106.2911,15.38,16.37,12.37,0,110.6,13.15,16.18,282.7
"2016-04-07 01:02:00",1525015,21.03,321.7,1.494,0.55,18.09,106.2871,15.37,16.36,12.49,0,110.6,13.15,16.17,283.7
"2016-04-07 01:02:30",1525016,19.29,319.5,1.629,0.951,18.04,106.2742,15.34,16.35,12.64,0,110.6,13.15,16.14,281.5
"2016-04-07 01:03:00",1525017,20.18,319.5,1.489,0.519,18.27,106.2638,15.31,16.34,12.62,0,110.6,13.15,16.11,281.5
"2016-04-07 01:03:30",1525018,20.26,318.7,0.695,0.195,18.37,106.2644,15.31,16.33,12.39,0,110.6,13.15,16.12,280.7
"2016-04-07 01:04:00",1525019,20.52,317.7,0.847,0.272,18.1,106.2644,15.31,16.32,12.59,0,110.6,13.15,16.12,279.7
"2016-04-07 01:04:30",1525020,19.6,316,1.116,0.328,18.23,106.2588,15.3,16.32,12.56,0,110.6,13.15,16.10,278.0
"2016-04-07 01:05:00",1525021,19.64,316.7,1.397,0.243,18.26,106.2444,15.26,16.3,12.57,0,110.6,13.15,16.06,278.7
"2016-04-07 01:05:30",1525022,19.06,316.4,2.661,0.272,18.29,106.2402,15.25,16.27,12.57,0,110.6,13.15,16.05,278.4
"2016-04-07 01:06:00",1525023,18.46,314.9,1.595,0.524,18.31,106.2405,15.25,16.26,12.55,0,110.6,13.15,16.05,276.9
"2016-04-07 01:06:30",1525024,18.6,315.1,1.386,0.754,18.53,106.245,15.26,16.25,12.48,0,110.6,13.15,16.07,277.1
"2016-04-07 01:07:00",1525025,18.73,312.9,1.794,0.53,18.59,106.2444,15.26,16.23,12.32,0,110.6,13.15,16.06,274.9
"2016-04-07 01:07:30",1525026,18.95,314.6,2.331,0.543,18.37,106.2472,15.27,16.25,12.42,0,110.6,13.15,16.07,276.6
"2016-04-07 01:08:00",1525027,18.91,314.8,2.659,0.528,18.44,106.2486,15.27,16.24,12.44,0,110.6,13.15,16.07,276.8
"2016-04-07 01:08:30",1525028,17.74,308.4,2.587,0.718,18.38,106.2492,15.27,16.21,12.38,0,110.6,13.16,16.08,270.4
"2016-04-07 01:09:00",1525029,16.69,308.3,2.64,0.604,18.36,106.2527,15.28,16.23,12.36,0,110.6,13.16,16.09,270.3
"2016-04-07 01:09:30",1525030,17.24,308,2.051,0.488,18.33,106.2536,15.28,16.24,12.41,0,110.6,13.16,16.09,270.0
"2016-04-07 01:10:00",1525031,17.84,307.1,1.028,0.625,18.42,106.2554,15.29,16.23,12.37,0,110.6,13.16,16.09,269.1
"2016-04-07 01:10:30",1525032,16.8,308.8,2.812,0.621,18.26,106.2548,15.29,16.24,12.42,0,110.6,13.16,16.09,270.8
"2016-04-07 01:11:00",1525033,18.14,312.8,1.534,0.608,18.56,106.2557,15.29,16.24,12.44,0,110.6,13.16,16.09,274.8
"2016-04-07 01:11:30",1525034,16.56,312.3,3.119,0.904,18.22,106.256,15.29,16.25,12.49,0,110.6,13.16,16.09,274.3
"2016-04-07 01:12:00",1525035,15.9,313.3,2.617,0.609,18.15,106.2577,15.29,16.25,12.62,0,110.6,13.16,16.10,275.3
"2016-04-07 01:12:30",1525036,16.68,313.8,1.492,0.398,18.11,106.2572,15.29,16.27,12.75,0,110.6,13.16,16.10,275.8
"2016-04-07 01:13:00",1525037,16.49,309.8,1.437,0.768,18.12,106.2563,15.29,16.27,12.73,0,110.6,13.16,16.09,271.8
"2016-04-07 01:13:30",1525038,16.76,310,1.301,0.436,17.94,106.2563,15.29,16.27,12.79,0,110.6,13.16,16.09,272.0
"2016-04-07 01:14:00",1525039,16.94,309,1.113,0.357,17.99,106.2563,15.29,16.27,12.83,0,110.6,13.16,16.09,271.0
"2016-04-07 01:14:30",1525040,17.34,307.4,1.335,0.314,17.95,106.2563,15.29,16.27,12.86,0,110.6,13.16,16.09,269.4
"2016-04-07 01:15:00",1525041,16.52,309.3,2.569,0.484,18.35,106.2549,15.29,16.25,12.76,0,110.6,13.16,16.09,271.3
"2016-04-07 01:15:30",1525042,17.02,307.8,2.503,0.662,18.32,106.2493,15.27,16.24,12.62,0,110.6,13.16,16.08,269.8
"2016-04-07 01:16:00",1525043,17.67,303.6,1.366,0.305,18.32,106.2467,15.26,16.25,12.63,0,110.6,13.16,16.07,265.6
"2016-04-07 01:16:30",1525044,18.17,309.9,2.099,0.769,18.35,106.2476,15.27,16.23,12.62,0,110.6,13.16,16.07,271.9
"2016-04-07 01:17:00",1525045,19.11,308.8,1.835,0.484,18.19,106.2513,15.28,16.23,12.78,0,110.6,13.16,16.08,270.8
"2016-04-07 01:17:30",1525046,19.24,309.1,1.163,0.413,18.15,106.2535,15.28,16.22,12.86,0,110.6,13.16,16.09,271.1
"2016-04-07 01:18:00",1525047,19.69,310.1,2.106,0.616,18.29,106.2563,15.29,16.22,12.85,0,110.6,13.16,16.09,272.1
"2016-04-07 01:18:30",1525048,19.79,309.8,2.566,0.71,18.16,106.2563,15.29,16.23,12.88,0,110.6,13.16,16.09,271.8
"2016-04-07 01:19:00",1525049,19.46,309,2.253,0.65,18.07,106.2563,15.29,16.25,12.98,0,110.6,13.16,16.09,271.0
"2016-04-07 01:19:30",1525050,18.45,305.9,1.822,0.539,18.2,106.2563,15.29,16.24,12.92,0,110.6,13.16,16.09,267.9
"2016-04-07 01:20:00",1525051,20.98,309.9,1.624,0.909,18.52,106.2563,15.29,16.24,12.81,0,110.6,13.16,16.09,271.9
"2016-04-07 01:20:30",1525052,19.86,306.9,1.683,0.571,18.45,106.2563,15.29,16.25,12.74,0,110.6,13.16,16.09,268.9
"2016-04-07 01:21:00",1525053,17.62,306.7,1.728,0.589,18.26,106.2563,15.29,16.24,12.82,0,110.6,13.16,16.09,268.7
"2016-04-07 01:21:30",1525054,16.55,309.7,2.05,0.391,18.21,106.2563,15.29,16.26,12.89,0,110.6,13.16,16.09,271.7
"2016-04-07 01:22:00",1525055,17.07,310.7,1.332,0.943,18.13,106.2563,15.29,16.25,13.01,0,110.6,13.16,16.09,272.7
"2016-04-07 01:22:30",1525056,17.68,312,1.603,0.408,18.16,106.2563,15.29,16.26,13.06,0,110.6,13.16,16.09,274.0
"2016-04-07 01:23:00",1525057,17.13,310.7,1.994,0.475,18.2,106.2563,15.29,16.26,13.12,0,110.6,13.16,16.09,272.7
"2016-04-07 01:23:30",1525058,17.79,310.9,1.452,0.573,18.26,106.2561,15.29,16.26,13.06,0,110.6,13.16,16.09,272.9
"2016-04-07 01:24:00",1525059,16.82,307.6,0.91,0.306,18.09,106.2515,15.28,16.25,13.09,0,110.6,13.16,16.08,269.6
"2016-04-07 01:24:30",1525060,16.6,309.8,1.641,0.601,18.12,106.2313,15.23,16.25,13.14,0,110.6,13.16,16.03,271.8
"2016-04-07 01:25:00",1525061,16.73,310.3,1.424,0.288,18.21,106.2225,15.2,16.24,13.15,0,110.6,13.16,16.01,272.3
"2016-04-07 01:25:30",1525062,16.84,310,1.094,0.325,18.28,106.2225,15.2,16.22,13.12,0,110.6,13.16,16.01,272.0
"2016-04-07 01:26:00",1525063,16.76,311,0.713,0.283,18.38,106.2225,15.2,16.2,13.05,0,110.6,13.16,16.01,273.0
"2016-04-07 01:26:30",1525064,17.23,310.9,1.405,0.426,18.3,106.2225,15.2,16.2,13.09,0,110.6,13.17,16.01,272.9
"2016-04-07 01:27:00",1525065,16.53,314.1,1.476,0.402,18.34,106.2214,15.2,16.19,13.14,0,110.6,13.17,16.01,276.1
"2016-04-07 01:27:30",1525066,16.52,313,1.406,0.254,18.18,106.2143,15.18,16.19,13.24,0,110.6,13.17,15.99,275.0
"2016-04-07 01:28:00",1525067,16.11,309.9,2.701,0.512,18.23,106.2017,15.15,16.17,13.24,0,110.6,13.17,15.95,271.9
"2016-04-07 01:28:30",1525068,16.59,306,4.172,0.461,18.07,106.1893,15.12,16.17,13.25,0,110.6,13.17,15.92,268.0
"2016-04-07 01:29:00",1525069,16.82,313,2.136,0.404,18.23,106.1887,15.12,16.14,13.32,0,110.6,13.17,15.92,275.0
"2016-04-07 01:29:30",1525070,16.43,314.3,2.748,0.359,18.2,106.1887,15.12,16.15,13.36,0,110.6,13.17,15.92,276.3
"2016-04-07 01:30:00",1525071,15.97,311.9,1.594,0.508,18.09,106.1887,15.12,16.15,13.41,0,110.6,13.17,15.92,273.9
"2016-04-07 01:30:30",1525072,17.15,308.2,2.314,0.718,18.02,106.185,15.11,16.13,13.46,0,110.6,13.17,15.91,270.2
"2016-04-07 01:31:00",1525073,17.38,312,1.534,1.246,18.09,106.1726,15.08,16.12,13.54,0,110.6,13.17,15.88,274.0
"2016-04-07 01:31:30",1525074,17.19,312.2,2.079,0.656,18.02,106.1645,15.05,16.1,13.53,0,110.6,13.17,15.86,274.2
"2016-04-07 01:32:00",1525075,17.98,310.1,1.211,0.634,18.15,106.1549,15.03,16.09,13.54,0,110.6,13.17,15.83,272.1
"2016-04-07 01:32:30",1525076,17.19,309.4,1.662,0.497,18.07,106.1555,15.03,16.08,13.5,0,110.6,13.17,15.84,271.4
"2016-04-07 01:33:00",1525077,17.6,309,1.689,0.406,17.87,106.1513,15.02,16.05,13.61,0,110.6,13.17,15.82,271.0
"2016-04-07 01:33:30",1525078,17.67,310,1.409,0.417,18.12,106.1426,15,16.03,13.62,0,110.6,13.17,15.80,272.0
"2016-04-07 01:34:00",1525079,20.61,308.9,2.114,0.852,18.04,106.1255,14.95,16.02,13.57,0,110.6,13.17,15.76,270.9
"2016-04-07 01:34:30",1525080,19.79,305.4,1.555,0.749,18.22,106.1238,14.95,16.03,13.54,0,110.6,13.17,15.75,267.4
"2016-04-07 01:35:00",1525081,19.48,306.7,1.34,0.795,18.27,106.1267,14.96,16,13.45,0,110.5,13.17,15.76,268.7
"2016-04-07 01:35:30",1525082,19.36,308.4,2.169,0.784,18.09,106.1279,14.96,15.99,13.53,0,110.6,13.17,15.76,270.4
"2016-04-07 01:36:00",1525083,18.99,309.9,0.684,1.318,18.2,106.1285,14.96,15.98,13.55,0,110.6,13.17,15.77,271.9
"2016-04-07 01:36:30",1525084,17.27,308.8,1.626,0.697,18.21,106.134,14.98,15.99,13.48,0,110.5,13.17,15.78,270.8
"2016-04-07 01:37:00",1525085,18.32,308.3,2.399,0.776,17.99,106.1437,15,15.99,13.58,0,110.5,13.17,15.81,270.3
"2016-04-07 01:37:30",1525086,16.47,301.2,2.71,0.927,18.02,106.1397,14.99,15.98,13.57,0,110.5,13.17,15.80,263.2
"2016-04-07 01:38:00",1525087,16.06,305.4,2.126,0.732,18.05,106.1374,14.98,16,13.57,0,110.5,13.17,15.79,267.4
"2016-04-07 01:38:30",1525088,17.43,303.4,1.917,0.714,18.17,106.1383,14.99,16,13.51,0,110.5,13.16,15.79,265.4
"2016-04-07 01:39:00",1525089,15.34,303.2,3.739,0.869,18.12,106.1375,14.98,15.98,13.56,0,110.5,13.17,15.79,265.2
"2016-04-07 01:39:30",1525090,15.8,303.3,1.821,0.755,17.97,106.1372,14.98,15.99,13.62,0,110.5,13.17,15.79,265.3
"2016-04-07 01:40:00",1525091,17.27,306.9,2.619,1.799,18.03,106.1411,14.99,15.98,13.64,0,110.5,13.16,15.80,268.9
"2016-04-07 01:40:30",1525092,16.53,304.2,3.612,0.522,18.05,106.1438,15,15.97,13.69,0,110.5,13.17,15.81,266.2
"2016-04-07 01:41:00",1525093,16.83,308.3,2.075,0.809,17.98,106.1453,15,15.98,13.75,0,110.5,13.17,15.81,270.3
"2016-04-07 01:41:30",1525094,15.66,303.1,2.301,0.352,17.95,106.1492,15.01,15.98,13.74,0,110.5,13.17,15.82,265.1
"2016-04-07 01:42:00",1525095,15.37,306.4,1.358,0.274,17.8,106.1493,15.02,15.96,13.87,0,110.5,13.17,15.82,268.4
"2016-04-07 01:42:30",1525096,15.04,304.1,2.573,0.414,17.8,106.1463,15.01,15.96,13.89,0,110.5,13.17,15.81,266.1
"2016-04-07 01:43:00",1525097,16.51,309,1.781,0.732,17.91,106.1302,14.97,15.95,13.94,0,110.5,13.17,15.77,271.0
"2016-04-07 01:43:30",1525098,18.2,308.4,2.217,0.585,17.9,106.1215,14.94,15.94,13.98,0,110.5,13.17,15.75,270.4
"2016-04-07 01:44:00",1525099,17.08,307,4.265,0.83,17.94,106.1195,14.94,15.91,13.97,0,110.5,13.17,15.74,269.0
"2016-04-07 01:44:30",1525100,16.52,307.3,2.622,0.532,17.97,106.1179,14.93,15.9,13.95,0,110.5,13.17,15.74,269.3
"2016-04-07 01:45:00",1525101,15.68,306.5,2.077,0.567,17.93,106.1084,14.91,15.89,13.95,0,110.5,13.17,15.71,268.5
"2016-04-07 01:45:30",1525102,14.86,304.6,1.849,0.42,17.83,106.0912,14.87,15.88,14,0,110.5,13.18,15.67,266.6
"2016-04-07 01:46:00",1525103,15.27,303.6,1.959,0.475,17.9,106.089,14.86,15.85,14.02,0,110.5,13.18,15.66,265.6
"2016-04-07 01:46:30",1525104,15.12,301.7,2.203,0.793,17.98,106.0884,14.86,15.85,13.98,0,110.5,13.17,15.66,263.7
"2016-04-07 01:47:00",1525105,13.88,300.9,4.147,0.893,17.87,106.0856,14.85,15.82,14.01,0,110.5,13.18,15.66,262.9